Hourly Data Report for August 11, 2022

WINNIPEG THE FORKS
MANITOBA
Current Station Operator: ECCC - MSC

49°53'18.008" N
97°07'46.007" W
230.00 m
5023262
71579
XWN

Download Data

Hourly Data (August 2022)
Hourly Data Report for August 11, 2022
TIME
LST
Temp Definition
°C
Dew Point Definition
°C
Rel Hum Definition
%
Precip. Amount Definition
mm

Wind Dir Definition
10's deg

Wind Spd Definition
km/h
Visibility Definition
km
Stn Press Definition
kPa
Hmdx Definition


Wind Chill Definition


Weather Definition


00:00 16.0 11.7 76 0.0 2 2   99.77     LegendNANA
01:00 14.8 11.2 79 0.0 3 2   99.76     LegendNANA
02:00 14.4 11.3 81 0.0 2 2   99.75     LegendNANA
03:00 13.8 10.6 81 0.0 5 2   99.75     LegendNANA
04:00 13.4 10.3 81 0.0 5 1   99.75     LegendNANA
05:00 12.5 10.1 85 0.0 3 1   99.75     LegendNANA
06:00 12.9 10.2 84 0.0 5 2   99.75     LegendNANA
07:00 14.8 10.6 76 0.0 7 3   99.75     LegendNANA
08:00 17.5 12.4 72 0.0 36 1   99.72     LegendNANA
09:00 19.2 13.3 69 0.0 21 2   99.70     LegendNANA
10:00 20.9 12.9 60 0.0 26 2   99.66     LegendNANA
11:00 22.4 12.8 55 0.0 21 6   99.63 25   LegendNANA
12:00 22.9 13.1 54 0.0 20 5   99.57 26   LegendNANA
13:00 23.5 13.2 52 0.0 21 7   99.53 26   LegendNANA
14:00 24.3 12.1 46 0.0 21 5   99.45 27   LegendNANA
15:00 24.6 11.4 44 0.0 20 7   99.41 27   LegendNANA
16:00 23.8 12.5 49 0.0 19 3   99.39 26   LegendNANA
17:00 23.5 12.1 49 0.0 21 4   99.35 26   LegendNANA
18:00 22.9 12.5 52 0.0 21 2   99.35 25   LegendNANA
19:00 22.6 12.6 53 0.0 21 1   99.31 25   LegendNANA
20:00 21.7 13.4 60 0.0   0   99.30 25   LegendNANA
21:00 20.9 14.0 64 0.0 9 2   99.28     LegendNANA
22:00 19.9 14.1 69 0.0   0   99.27     LegendNANA
23:00 19.4 14.0 71 0.0 8 1   99.23     LegendNANA

Notes on Data Quality.

Legend

  • E = Estimated
  • M = Missing
  • NA = Not Available*
  • [empty] = Indicates an unobserved value
Date modified: